| time (UTC) | temp F | wind direction | speed knots | gust knots | rain 1hr in | rain 24hr in | rain mn in | humidity % | barometer mb |
| 20260504204538 | 77 | 145 | 1.7 | 1.7 | 0.00 | 0.00 | 0.00 | 35 | 1012.9 |
| 20260504203534 | 77 | 300 | 2.6 | 2.6 | 0.00 | 0.00 | 0.00 | 37 | 1013.1 |
| 20260504202533 | 76 | 209 | 0.0 | 1.7 | 0.00 | 0.00 | 0.00 | 36 | 1013.2 |
| 20260504201533 | 76 | 188 | 1.7 | 2.6 | 0.00 | 0.00 | 0.00 | 35 | 1013.2 |
| 20260504200532 | 76 | 204 | 2.6 | 2.6 | 0.00 | 0.00 | 0.00 | 35 | 1013.4 |
| 20260504195531 | 76 | 178 | 1.7 | 2.6 | 0.00 | 0.00 | 0.00 | 34 | 1013.5 |
| 20260504194531 | 76 | 193 | 0.9 | 4.3 | 0.00 | 0.00 | 0.00 | 34 | 1013.5 |
| 20260504193529 | 75 | 185 | 1.7 | 4.3 | 0.00 | 0.00 | 0.00 | 35 | 1013.8 |
| 20260504192526 | 76 | 136 | 0.9 | 1.7 | 0.00 | 0.00 | 0.00 | 36 | 1014.0 |
| 20260504191521 | 76 | 164 | 0.0 | 0.9 | 0.00 | 0.00 | 0.00 | 35 | 1014.3 |
| 20260504190519 | 75 | 206 | 1.7 | 1.7 | 0.00 | 0.00 | 0.00 | 35 | 1014.4 |
| 20260504185518 | 75 | 149 | 2.6 | 2.6 | 0.00 | 0.00 | 0.00 | 36 | 1014.5 |
| 20260504184515 | 74 | 205 | 0.9 | 2.6 | 0.00 | 0.00 | 0.00 | 35 | 1014.8 |
| 20260504183514 | 73 | 208 | 2.6 | 2.6 | 0.00 | 0.00 | 0.00 | 38 | 1014.9 |
| 20260504182509 | 74 | 135 | 2.6 | 2.6 | 0.00 | 0.00 | 0.00 | 38 | 1015.1 |
| 20260504181509 | 74 | 178 | 1.7 | 1.7 | 0.00 | 0.00 | 0.00 | 38 | 1015.1 |
| 20260504180506 | 73 | 183 | 0.0 | 1.7 | 0.00 | 0.00 | 0.00 | 40 | 1015.4 |
| 20260504175501 | 73 | 151 | 0.0 | 1.7 | 0.00 | 0.00 | 0.00 | 37 | 1015.4 |
| 20260504174456 | 72 | 172 | 2.6 | 5.2 | 0.00 | 0.00 | 0.00 | 37 | 1015.4 |
| 20260504173455 | 72 | 161 | 0.9 | 4.3 | 0.00 | 0.00 | 0.00 | 38 | 1015.8 |
| 20260504172454 | 72 | 323 | 2.6 | 4.3 | 0.00 | 0.00 | 0.00 | 37 | 1015.9 |
| 20260504171454 | 71 | 183 | 0.9 | 1.7 | 0.00 | 0.00 | 0.00 | 39 | 1016.2 |
| 20260504170453 | 71 | 174 | 1.7 | 2.6 | 0.00 | 0.00 | 0.00 | 40 | 1015.9 |
| 20260504160442 | 68 | 167 | 0.0 | 0.9 | 0.00 | 0.00 | 0.00 | 39 | 1016.7 |
| 20260504150432 | 65 | 189 | 0.9 | 2.6 | 0.00 | 0.00 | 0.00 | 42 | 1017.4 |
| 20260504140423 | 62 | 166 | 0.9 | 1.7 | 0.00 | 0.00 | 0.00 | 46 | 1017.5 |
| 20260504130417 | 56 | 162 | 0.0 | 0.9 | 0.00 | 0.00 | 0.00 | 56 | 1017.6 |
| 20260504110345 | 49 | 179 | 0.0 | 0.0 | 0.00 | 0.00 | 0.00 | 65 | 1018.0 |
| 20260504100331 | 49 | 178 | 0.0 | 0.0 | 0.00 | 0.00 | 0.00 | 64 | 1018.0 |
| 20260504081308 | 51 | 179 | 0.9 | 0.9 | 0.00 | 0.00 | 0.00 | 57 | 1018.3 |
| 20260504080307 | 51 | 179 | 0.0 | 0.9 | 0.00 | 0.00 | 0.00 | 58 | 1018.5 |
| 20260504070246 | 52 | 181 | 0.0 | 0.9 | 0.00 | 0.00 | 0.00 | 54 | 1018.4 |
| 20260504060235 | 51 | 183 | 0.0 | 0.0 | 0.00 | 0.00 | 0.00 | 55 | 1018.9 |
| 20260504050223 | 50 | 183 | 0.0 | 0.0 | 0.00 | 0.00 | 0.00 | 54 | 1018.9 |
| 20260504045221 | 50 | 183 | 0.0 | 0.0 | 0.00 | 0.00 | 0.00 | 54 | 1018.8 |
| 20260504044216 | 49 | 183 | 0.0 | 0.0 | 0.00 | 0.00 | 0.00 | 53 | 1019.1 |
| 20260504043215 | 49 | 181 | 0.0 | 0.0 | 0.00 | 0.00 | 0.00 | 55 | 1019.2 |
| 20260504042215 | 49 | 181 | 0.0 | 0.0 | 0.00 | 0.00 | 0.00 | 60 | 1018.7 |
| 20260504041213 | 49 | 181 | 0.0 | 0.0 | 0.00 | 0.00 | 0.00 | 55 | 1018.7 |
| 20260504040213 | 49 | 181 | 0.0 | 0.0 | 0.00 | 0.00 | 0.00 | 52 | 1018.8 |
| 20260504035213 | 50 | 183 | 0.0 | 0.0 | 0.00 | 0.00 | 0.00 | 51 | 1018.9 |
| 20260504034213 | 51 | 181 | 0.0 | 0.0 | 0.00 | 0.00 | 0.00 | 49 | 1019.0 |
| 20260504033208 | 51 | 183 | 0.0 | 0.0 | 0.00 | 0.00 | 0.00 | 49 | 1019.0 |
| 20260504032208 | 51 | 183 | 0.0 | 0.0 | 0.00 | 0.00 | 0.00 | 49 | 1018.9 |
| 20260504031208 | 51 | 183 | 0.0 | 0.0 | 0.00 | 0.00 | 0.00 | 48 | 1018.8 |
| 20260504030207 | 51 | 183 | 0.0 | 0.0 | 0.00 | 0.00 | 0.00 | 46 | 1018.8 |
| 20260504025205 | 52 | 181 | 0.0 | 0.0 | 0.00 | 0.00 | 0.00 | 47 | 1018.7 |
| 20260504024205 | 51 | 183 | 0.0 | 0.0 | 0.00 | 0.00 | 0.00 | 47 | 1018.8 |
| 20260504023203 | 50 | 183 | 0.0 | 0.0 | 0.00 | 0.00 | 0.00 | 50 | 1018.8 |
| 20260504022202 | 49 | 183 | 0.0 | 0.0 | 0.00 | 0.00 | 0.00 | 53 | 1018.5 |
| 20260504021202 | 49 | 183 | 0.0 | 0.0 | 0.00 | 0.00 | 0.00 | 55 | 1018.5 |
| 20260504020201 | 49 | 183 | 0.0 | 0.0 | 0.00 | 0.00 | 0.00 | 58 | 1018.5 |
| 20260504015200 | 49 | 183 | 0.0 | 0.0 | 0.00 | 0.00 | 0.00 | 58 | 1018.3 |
| 20260504014159 | 50 | 181 | 0.0 | 0.0 | 0.00 | 0.00 | 0.00 | 56 | 1018.4 |
| 20260504013159 | 50 | 181 | 0.0 | 0.0 | 0.00 | 0.00 | 0.00 | 57 | 1018.2 |
| 20260504012154 | 51 | 183 | 0.0 | 0.0 | 0.00 | 0.00 | 0.00 | 51 | 1018.3 |
| 20260504011153 | 51 | 181 | 0.0 | 0.0 | 0.00 | 0.00 | 0.00 | 47 | 1018.1 |
| 20260504010151 | 51 | 183 | 0.0 | 0.0 | 0.00 | 0.00 | 0.00 | 47 | 1018.0 |
| 20260504005150 | 51 | 183 | 0.0 | 0.0 | 0.00 | 0.00 | 0.00 | 48 | 1018.3 |
| 20260504004145 | 52 | 183 | 0.0 | 0.0 | 0.00 | 0.00 | 0.00 | 50 | 1018.1 |
| 20260504003144 | 53 | 183 | 0.0 | 0.0 | 0.00 | 0.00 | 0.00 | 47 | 1017.9 |
| 20260504002144 | 54 | 183 | 0.0 | 0.0 | 0.00 | 0.00 | 0.00 | 48 | 1017.8 |
| 20260504001144 | 55 | 181 | 0.0 | 0.0 | 0.00 | 0.00 | 0.00 | 42 | 1018.0 |
| 20260504000139 | 57 | 183 | 0.0 | 0.0 | 0.00 | 0.00 | 0.00 | 39 | 1017.9 |
| 20260503235139 | 57 | 183 | 0.0 | 0.0 | 0.00 | 0.00 | 0.00 | 38 | 1017.7 |
| 20260503234135 | 59 | 183 | 0.0 | 0.0 | 0.00 | 0.00 | 0.00 | 37 | 1017.6 |
| 20260503233133 | 60 | 184 | 0.0 | 0.9 | 0.00 | 0.00 | 0.00 | 35 | 1017.6 |
| 20260503232133 | 60 | 178 | 0.9 | 0.9 | 0.00 | 0.00 | 0.00 | 34 | 1017.4 |
| 20260503231133 | 60 | 165 | 0.9 | 1.7 | 0.00 | 0.00 | 0.00 | 33 | 1017.4 |
| 20260503230133 | 60 | 199 | 1.7 | 1.7 | 0.00 | 0.00 | 0.00 | 33 | 1017.4 |
| 20260503225130 | 60 | 147 | 0.0 | 4.3 | 0.00 | 0.00 | 0.00 | 33 | 1017.3 |
| 20260503224126 | 61 | 151 | 0.0 | 1.7 | 0.00 | 0.00 | 0.00 | 33 | 1017.6 |
| 20260503223125 | 61 | 229 | 1.7 | 2.6 | 0.00 | 0.00 | 0.00 | 32 | 1017.5 |
| 20260503222120 | 61 | 179 | 0.0 | 0.9 | 0.00 | 0.00 | 0.00 | 32 | 1017.5 |
| 20260503221116 | 61 | 155 | 0.9 | 2.6 | 0.00 | 0.00 | 0.00 | 31 | 1017.6 |
| 20260503220115 | 61 | 86 | 2.6 | 4.3 | 0.00 | 0.00 | 0.00 | 33 | 1017.6 |
| 20260503215114 | 61 | 258 | 1.7 | 4.3 | 0.00 | 0.00 | 0.00 | 31 | 1017.6 |
| 20260503214114 | 61 | 164 | 2.6 | 4.3 | 0.00 | 0.00 | 0.00 | 31 | 1017.6 |
| 20260503213109 | 61 | 120 | 0.9 | 2.6 | 0.00 | 0.00 | 0.00 | 32 | 1017.8 |
| 20260503212104 | 61 | 215 | 1.7 | 2.6 | 0.00 | 0.00 | 0.00 | 32 | 1017.6 |
| 20260503211103 | 60 | 324 | 0.9 | 2.6 | 0.00 | 0.00 | 0.00 | 32 | 1017.7 |
| 20260503205100 | 61 | 328 | 2.6 | 4.3 | 0.00 | 0.00 | 0.00 | 30 | 1017.9 |